Weather History for Morgantown, WV

Change the Weather History Date:

Monday, January 12, 1998

  Actual Average Record
Temperature  
Mean Temperature 42 °F 31 °F  
Max Temperature 51 °F 39 °F 68 °F (2013)
Min Temperature 33 °F 24 °F -4 °F (1981)
Degree Days  
Heating Degree Days 24 34  
Month to date heating degree days 405  
Since 1 July heating degree days 2389  
Cooling Degree Days 0 0  
Month to date cooling degree days 0  
Year to date cooling degree days 0  
Moisture  
Dew Point 34 °F    
Average Humidity 75    
Maximum Humidity 100    
Minimum Humidity 53    
Precipitation  
Precipitation 0.00 in 0.09 in 0.89 in (1949)
Month to date precipitation 1.08  
Year to date precipitation 1.08  
Sea Level Pressure  
Sea Level Pressure 30.15 in    
Wind  
Wind Speed 4 mph (South)    
Max Wind Speed 12 mph    
Max Gust Speed 17 mph    
Visibility 17 miles    
Events Rain    
T = Trace of Precipitation, MM = Missing Value Source: NWS Daily Summary

Daily Weather History Graph

Daily Weather History Graph

Search for Another Location

Airport:

Trip Planner

Search our weather history database for the weather conditions in past years. The results will help you decide how hot, cold, wet, or windy it might be!

Date:

Astronomy

Jan. 12, 1998 Rise Set
Actual Time 7:39 AM EST 5:16 PM EST
Civil Twilight 7:10 AM EST 5:46 PM EST
Nautical Twilight 6:36 AM EST 6:19 PM EST
Astronomical Twilight 6:04 AM EST 6:52 PM EST
Moon 5:36 PM EST (1/12) 7:16 AM EST (1/12)
Length of Visible Light 10h 36m
Length of Day
9h 36m
Full, 100% of the Moon is Illuminated
Jan 12
Full
Jan 12
Full
Jan 20
Last Quarter
Jan 28
New
Feb 3
First Quarter

Hourly Weather History & Observations

Time (EST) Temp. Windchill Dew Point Humidity Pressure Visibility Wind Dir Wind Speed Gust Speed Precip Events Conditions
12:45 AM 33.8 °F - 26.6 °F 75% 30.22 in 20.0 mi Calm Calm - N/A   Overcast
1:45 AM 33.8 °F - 24.8 °F 70% 30.22 in 20.0 mi Calm Calm - N/A   Overcast
2:45 AM 33.8 °F - 26.6 °F 75% 30.24 in 20.0 mi Calm Calm - N/A   Overcast
3:45 AM 33.8 °F 28.6 °F 26.6 °F 75% 30.24 in 20.0 mi NE 5.8 mph - N/A   Overcast
4:45 AM 33.8 °F 28.6 °F 21.2 °F 60% 30.22 in 20.0 mi NE 5.8 mph - N/A   Overcast
5:45 AM 33.8 °F 28.6 °F 19.4 °F 56% 30.22 in 20.0 mi NNE 5.8 mph - N/A   Overcast
6:45 AM 33.8 °F - 21.2 °F 60% 30.21 in 20.0 mi Calm Calm - N/A   Overcast
7:45 AM 35.6 °F 32.8 °F 24.8 °F 65% 30.16 in 20.0 mi Variable 3.5 mph - N/A   Overcast
8:45 AM 37.4 °F 33.8 °F 26.6 °F 65% 30.16 in 20.0 mi NNE 4.6 mph - N/A   Overcast
9:45 AM 39.2 °F - 26.6 °F 61% 30.17 in 20.0 mi Calm Calm - N/A   Overcast
10:45 AM 42.8 °F 40.1 °F 26.6 °F 53% 30.17 in 20.0 mi South 4.6 mph - N/A   Overcast
11:45 AM 41.0 °F 37.1 °F 35.6 °F 81% 30.15 in 7.0 mi SSE 5.8 mph - N/A Rain Light Rain
12:45 PM 42.8 °F 39.3 °F 39.2 °F 87% 30.15 in 10.0 mi South 5.8 mph - N/A Rain Light Rain
1:45 PM 42.8 °F - 42.8 °F 100% 30.12 in 6.0 mi Calm Calm - N/A Rain Light Rain
2:45 PM 46.4 °F 42.4 °F 44.6 °F 93% 30.12 in 7.0 mi SSW 8.1 mph - N/A Rain Light Rain
3:45 PM 46.4 °F 41.5 °F 46.4 °F 100% 30.12 in 10.0 mi SSW 10.4 mph - N/A   Overcast
4:45 PM 46.4 °F 41.1 °F 44.6 °F 93% 30.09 in 15.0 mi SSW 11.5 mph - N/A   Mostly Cloudy
5:50 PM 46.4 °F 41.9 °F 42.8 °F 87% 30.08 in 20.0 mi SSW 9.2 mph - N/A   Mostly Cloudy
6:50 PM 48.2 °F - 42.8 °F 82% 30.09 in 20.0 mi South 8.1 mph - N/A   Mostly Cloudy
7:45 PM 48.2 °F - 42.8 °F 82% 30.07 in 20.0 mi South 6.9 mph - N/A   Overcast
8:45 PM 48.2 °F - 41.0 °F 76% 30.06 in 20.0 mi SSW 8.1 mph - N/A   Overcast
9:45 PM 50.0 °F - 41.0 °F 71% 30.04 in 20.0 mi South 9.2 mph - N/A   Mostly Cloudy
10:45 PM 51.8 °F - 41.0 °F 67% 30.04 in 20.0 mi SSW 10.4 mph 17.3 mph N/A   Overcast